Location: Bailey Volunteer Fire Department
(33.4359°N, 96.1680°W)
Time: 16:21:58
(UTC+00:00)

Cosmos 1758 Rocket - Pass Details

Date: 13 December 2025
Orbit: 595 x 629 km, 82.5° (Epoch: 13 January)

Event Time Altitude Azimuth Distance (km) Brightness Sun altitude
Rises 12:36:22 0° 210° (SSW) 2,894 6.9 -9.1°
Reaches altitude 10° 12:38:51 10° 222° (SW) 1,988 6.0 -8.7°
Maximum altitude 12:42:38 28° 282° (WNW) 1,173 4.4 -7.9°
Drops below altitude 10° 12:46:26 10° 341° (NNW) 1,983 5.8 -7.2°
Sets 12:48:55 0° 353° (N) 2,886 6.7 -6.7°
